This is the latest recevied weather packets stored in our database for station/object K6JWN. If no packets are shown the sender has not sent any weather packets the latest 10 day(s).
| Time | Temp. | Humidity | Pressure | Rain* | Wind** | Luminosity | Snow |
|---|---|---|---|---|---|---|---|
| 1778167157 | 12.78° C | 82% | 1018.3 hPa | 0 mm | - | - | - |
| 1778166557 | 13.33° C | 80% | 1018.2 hPa | 0 mm | - | - | - |
| 1778165956 | 13.33° C | 80% | 1018.3 hPa | 0 mm | - | - | - |
| 1778165356 | 13.33° C | 80% | 1018.4 hPa | 0 mm | - | - | - |
| 1778164757 | 12.78° C | 81% | 1018.2 hPa | 0 mm | - | - | - |
| 1778164157 | 12.78° C | 82% | 1018.1 hPa | 0 mm | - | - | - |
| 1778163557 | 12.78° C | 83% | 1018 hPa | 0 mm | - | - | - |
| 1778162956 | 12.22° C | 84% | 1017.9 hPa | 0 mm | - | - | - |
| 1778162357 | 12.22° C | 84% | 1017.9 hPa | 0 mm | - | - | - |
| 1778161757 | 11.67° C | 84% | 1017.8 hPa | 0 mm | - | - | - |
| 1778161157 | 11.67° C | 84% | 1017.8 hPa | 0 mm | - | - | - |
| 1778160557 | 11.11° C | 83% | 1017.6 hPa | 0 mm | - | - | - |
| 1778159956 | 11.11° C | 82% | 1017.6 hPa | 0 mm | - | - | - |
| 1778159356 | 11.67° C | 81% | 1017.6 hPa | 0 mm | - | - | - |
| 1778158757 | 11.67° C | 81% | 1017.6 hPa | 0 mm | - | - | - |
| 1778158156 | 12.22° C | 80% | 1017.5 hPa | 0 mm | - | - | - |
| 1778157557 | 12.22° C | 81% | 1017.6 hPa | 0 mm | - | - | - |
| 1778156957 | 12.22° C | 80% | 1017.5 hPa | 0 mm | - | - | - |
| 1778156357 | 12.22° C | 79% | 1017.5 hPa | 0 mm | - | - | - |
| 1778155756 | 12.78° C | 79% | 1017.4 hPa | 0 mm | - | - | - |
| 1778155157 | 12.78° C | 82% | 1017.4 hPa | 0 mm | - | - | - |
| 1778154557 | 12.78° C | 84% | 1017.4 hPa | 0 mm | - | - | - |
| 1778153956 | 12.22° C | 83% | 1017.5 hPa | 0 mm | - | - | - |
| 1778153356 | 11.67° C | 81% | 1017.5 hPa | 0 mm | - | - | - |
| 1778152756 | 12.22° C | 80% | 1017.4 hPa | 0 mm | - | - | - |
* Rain latest hour (hover to see other rain measurements)
** Current wind speed in m/s (hover to see current wind gust speed)